STARLINK-35281, 65824

Orbit data source: Space-Track

STARLINK-35281, 65824 is a payload satellite owned by SpaceX/Seattle (US) in LEO that was launched on Mon, 29 Sep 2025 UTC via an FALCON 9 launch vehicle from the Air Force Western Test Range (AFWTR). Payload-class satellites include a variety of spacecraft equipped with specific instruments for various scientific and technological missions. These include communications satellites like Starlink; space stations such as the ISS; scientific satellites like the Hubble; Earth observation satellites from companies like Planet Labs, Umbra, and HawkEye 360; GPS; miniature CubeSats for education and research; and military/defense satellites.

Loading next visibility...
Identifier
65824, 2025-221B
Orbit
LEO
Country
Flag of USUS
Related business
Manufacturer
SpaceX/Seattle
Mission
Operational Commercial Communications
Bus & Motor
STARLINK V2MO, Unknown motor
Mass
575 kg wet, ~530 kg dry
Launch date (UTC)
2025-09-29 (9 months ago)
Launch vehicle
FALCON 9
Launch site
Air Force Western Test Range (AFWTR)
Object type
Payload
Rocket body
Debris
Shape & HBR
Box + 2 Pan, 17.7 m
Radar Cross Section
36.964 m², Large (>1 m²)

Expand to show TLE details & history
Last TLE update: 9 hours ago

TLE from 9 hours ago
0 STARLINK-35281
1 65824U 25221B   26171.46622475  .00018749  00000-0  64336-3 0  9994
2 65824  53.1602 331.3387 0001168  95.5636 264.5498 15.30209413 41812
Epoch: 2026-06-20T11:11Z
TLE epoch observation values (Epoch: 2026-06-20T11:11:21.818Z)
Latitude
-0.00002°
Longitude
-105.18267°
Altitude
476.163 km
Speed
7.629 km/s
True Right ascension
22h 05m 21s
True Declination
0° 00' 00"
Sunlit
Object was in full shadow at epoch
Visualization orbit readout
Latitude
Unknown
Longitude
Unknown
Altitude
Unknown
Speed
Unknown
Apparent Right ascension
Unknown
Apparent Declination
Unknown
Sunlit
N/A
Visualization observer readout
Local Sidereal Time
07:20:48
Azimuth
Unknown
Elevation
Unknown
Doppler factor
Unknown
Orbital elements
Apogee altitude
476.244 km
Perigee altitude
474.643 km
Semi-major axis
6,853.58 km
Eccentricity
0.00012
Inclination
53.1602°
RAAN
331.3387°
Arg. of periapsis
95.5636°
True anomaly
264.53648°
Mean anomaly
264.5498°
Eccentric anomaly
264.54314°
Mean motion
3.82531 °/min
Orbital period
94.11 mins
BSTAR
0.00064336
Loading maneuver chart data...
Computing Atmospheric mass density...
Loading historical data...
Loading historical data...
Loading historical data...
Loading historical data...
Loading historical data...
Loading historical data...
Loading historical data...

Documentation

Showing up to 5 results
|